• en Belgique
  • Liste des pays
  • À 7 jours
  • Température de l'eau
  • Carte satellitaire
  • Carte météo
  • Widgets météo
  • user-avatar
    Se connecter

    Météo par heure à Louvain

    Ce jour, 20 Mai, Dimanche

    Heure Température Précipitation Vent Pression Humidité
    00:00 +7°C° 0 mm 2 m/s 762 mmHg 92%
    01:00 +7°C° 0 mm 2 m/s 762 mmHg 93%
    02:00 +7°C° 0 mm 2 m/s 762 mmHg 93%
    03:00 +7°C° 0 mm 2 m/s 762 mmHg 94%
    04:00 +8°C° 0 mm 2 m/s 762 mmHg 91%
    05:00 +9°C° 0 mm 2 m/s 762 mmHg 88%
    06:00 +10°C° 0 mm 2 m/s 762 mmHg 85%
    07:00 +13°C° 0 mm 2 m/s 762 mmHg 78%
    08:00 +16°C° 0 mm 2 m/s 762 mmHg 71%
    09:00 +18°C° 0 mm 3 m/s 762 mmHg 64%
    10:00 +19°C° 0 mm 3 m/s 761 mmHg 60%
    11:00 +20°C° 0 mm 3 m/s 761 mmHg 57%
    12:00 +22°C° 0 mm 3 m/s 761 mmHg 53%
    13:00 +22°C° 0,2 mm 3 m/s 761 mmHg 54%
    14:00 +22°C° 0,2 mm 4 m/s 760 mmHg 55%
    15:00 +23°C° 0,2 mm 4 m/s 760 mmHg 56%
    16:00 +22°C° 0,1 mm 3 m/s 760 mmHg 60%
    17:00 +21°C° 0,1 mm 3 m/s 759 mmHg 64%
    18:00 +21°C° 0,1 mm 2 m/s 759 mmHg 69%
    19:00 +19°C° 0,2 mm 2 m/s 759 mmHg 73%
    20:00 +17°C° 0,2 mm 2 m/s 759 mmHg 77%
    21:00 +16°C° 0,2 mm 2 m/s 759 mmHg 81%
    22:00 +15°C° 0 mm 2 m/s 759 mmHg 81%
    23:00 +14°C° 0 mm 3 m/s 759 mmHg 81%

    Demain, 21 Mai, Lundi

    Heure Température Précipitation Vent Pression Humidité
    00:00 +13°C° 0 mm 3 m/s 759 mmHg 82%
    01:00 +13°C° 0 mm 3 m/s 758 mmHg 81%
    02:00 +13°C° 0 mm 3 m/s 758 mmHg 81%
    03:00 +12°C° 0 mm 3 m/s 758 mmHg 81%
    04:00 +13°C° 0 mm 3 m/s 758 mmHg 80%
    05:00 +14°C° 0 mm 3 m/s 757 mmHg 79%
    06:00 +14°C° 0 mm 3 m/s 757 mmHg 79%
    07:00 +17°C° 0 mm 4 m/s 757 mmHg 74%
    08:00 +19°C° 0 mm 4 m/s 757 mmHg 70%
    09:00 +20°C° 0 mm 4 m/s 756 mmHg 66%
    10:00 +21°C° 0,3 mm 4 m/s 756 mmHg 64%
    11:00 +22°C° 0,3 mm 4 m/s 756 mmHg 62%
    12:00 +23°C° 0,3 mm 4 m/s 755 mmHg 60%
    13:00 +23°C° 0,7 mm 4 m/s 755 mmHg 61%
    14:00 +24°C° 0,7 mm 3 m/s 754 mmHg 62%
    15:00 +24°C° 0,7 mm 3 m/s 754 mmHg 62%
    16:00 +24°C° 0,3 mm 2 m/s 754 mmHg 65%
    17:00 +23°C° 0,3 mm 2 m/s 754 mmHg 69%
    18:00 +23°C° 0,3 mm 1 m/s 753 mmHg 72%
    19:00 +21°C° 0,1 mm 1 m/s 754 mmHg 75%
    20:00 +20°C° 0,1 mm 1 m/s 754 mmHg 79%
    21:00 +18°C° 0,1 mm 1 m/s 754 mmHg 83%
    22:00 +16°C° 0,1 mm 1 m/s 753 mmHg 85%
    23:00 +16°C° 0,1 mm 1 m/s 753 mmHg 86%

    Après-demain, 22 Mai, Mardi

    Heure Température Précipitation Vent Pression Humidité
    00:00 +15°C° 0,1 mm 1 m/s 753 mmHg 88%
    01:00 +15°C° 0,1 mm 1 m/s 753 mmHg 89%
    02:00 +14°C° 0,1 mm 1 m/s 753 mmHg 90%
    03:00 +14°C° 0,1 mm 1 m/s 753 mmHg 91%
    04:00 +15°C° 0 mm 1 m/s 753 mmHg 89%
    05:00 +16°C° 0 mm 1 m/s 753 mmHg 88%
    06:00 +18°C° 0 mm 1 m/s 753 mmHg 86%
    07:00 +19°C° 0 mm 1 m/s 754 mmHg 81%
    08:00 +21°C° 0 mm 1 m/s 754 mmHg 75%
    09:00 +23°C° 0 mm 1 m/s 754 mmHg 69%
    10:00 +24°C° 0,1 mm 1 m/s 754 mmHg 64%
    11:00 +25°C° 0,1 mm 1 m/s 754 mmHg 59%
    12:00 +26°C° 0,1 mm 1 m/s 754 mmHg 55%
    13:00 +26°C° 0,2 mm 1 m/s 754 mmHg 54%
    14:00 +26°C° 0,2 mm 1 m/s 754 mmHg 53%
    15:00 +26°C° 0,2 mm 1 m/s 754 mmHg 53%
    16:00 +25°C° 0,4 mm 1 m/s 754 mmHg 59%
    17:00 +24°C° 0,4 mm 1 m/s 755 mmHg 65%
    18:00 +23°C° 0,4 mm 1 m/s 755 mmHg 71%
    19:00 +22°C° 0,4 mm 1 m/s 755 mmHg 75%
    20:00 +20°C° 0,4 mm 1 m/s 755 mmHg 80%
    21:00 +19°C° 0,4 mm 1 m/s 756 mmHg 84%
    22:00 +18°C° 0,1 mm 1 m/s 756 mmHg 85%
    23:00 +18°C° 0,1 mm 1 m/s 756 mmHg 86%

    23 Mai, Mercredi

    Heure Température Précipitation Vent Pression Humidité
    00:00 +16°C° 0,1 mm 1 m/s 756 mmHg 87%
    01:00 +16°C° 0,1 mm 1 m/s 757 mmHg 88%
    02:00 +16°C° 0,1 mm 1 m/s 757 mmHg 89%
    03:00 +15°C° 0,1 mm 1 m/s 757 mmHg 90%
    04:00 +16°C° 0,1 mm 1 m/s 757 mmHg 89%
    05:00 +18°C° 0,1 mm 1 m/s 758 mmHg 88%
    06:00 +18°C° 0,1 mm 2 m/s 758 mmHg 86%
    07:00 +19°C° 0,3 mm 2 m/s 758 mmHg 83%
    08:00 +20°C° 0,3 mm 3 m/s 759 mmHg 80%
    09:00 +21°C° 0,3 mm 3 m/s 759 mmHg 76%
    10:00 +22°C° 0,4 mm 4 m/s 759 mmHg 72%
    11:00 +23°C° 0,4 mm 4 m/s 759 mmHg 68%
    12:00 +23°C° 0,4 mm 5 m/s 759 mmHg 63%
    13:00 +23°C° 0,4 mm 5 m/s 759 mmHg 64%
    14:00 +23°C° 0,4 mm 5 m/s 759 mmHg 65%
    15:00 +23°C° 0,4 mm 5 m/s 759 mmHg 66%
    16:00 +22°C° 0,6 mm 4 m/s 759 mmHg 72%
    17:00 +21°C° 0,6 mm 4 m/s 759 mmHg 77%
    18:00 +20°C° 0,6 mm 4 m/s 759 mmHg 82%
    19:00 +19°C° 0,2 mm 4 m/s 759 mmHg 84%
    20:00 +18°C° 0,2 mm 4 m/s 759 mmHg 86%
    21:00 +18°C° 0,2 mm 4 m/s 760 mmHg 89%
    22:00 +17°C° 0,3 mm 4 m/s 760 mmHg 89%
    23:00 +17°C° 0,3 mm 4 m/s 760 mmHg 89%

    24 Mai, Jeudi

    Heure Température Précipitation Vent Pression Humidité
    00:00 +15°C° 0,3 mm 4 m/s 760 mmHg 89%
    01:00 +15°C° 0,5 mm 4 m/s 760 mmHg 89%
    02:00 +15°C° 0,5 mm 4 m/s 760 mmHg 89%
    03:00 +14°C° 0,5 mm 4 m/s 759 mmHg 88%
    04:00 +15°C° 0,2 mm 4 m/s 759 mmHg 87%
    05:00 +15°C° 0,2 mm 4 m/s 759 mmHg 86%
    06:00 +15°C° 0,2 mm 4 m/s 760 mmHg 85%
    07:00 +18°C° 0,1 mm 4 m/s 760 mmHg 83%
    08:00 +19°C° 0,1 mm 5 m/s 760 mmHg 80%
    09:00 +20°C° 0,1 mm 5 m/s 760 mmHg 78%
    10:00 +21°C° 0,5 mm 5 m/s 760 mmHg 75%
    11:00 +22°C° 0,5 mm 5 m/s 760 mmHg 72%
    12:00 +23°C° 0,5 mm 6 m/s 759 mmHg 70%
    13:00 +23°C° 0,6 mm 6 m/s 759 mmHg 69%
    14:00 +23°C° 0,6 mm 6 m/s 759 mmHg 68%
    15:00 +23°C° 0,6 mm 6 m/s 759 mmHg 67%
    16:00 +23°C° 0,3 mm 5 m/s 759 mmHg 69%
    17:00 +22°C° 0,3 mm 5 m/s 759 mmHg 70%
    18:00 +22°C° 0,3 mm 5 m/s 759 mmHg 72%
    19:00 +20°C° 0,2 mm 5 m/s 759 mmHg 74%
    20:00 +19°C° 0,2 mm 5 m/s 760 mmHg 77%
    21:00 +17°C° 0,2 mm 5 m/s 760 mmHg 79%
    22:00 +17°C° 0,2 mm 4 m/s 760 mmHg 80%
    23:00 +15°C° 0,2 mm 4 m/s 760 mmHg 82%

    25 Mai, Vendredi

    Heure Température Précipitation Vent Pression Humidité
    00:00 +15°C° 0,2 mm 4 m/s 760 mmHg 83%
    01:00 +14°C° 0 mm 4 m/s 760 mmHg 83%
    02:00 +14°C° 0 mm 4 m/s 760 mmHg 83%
    03:00 +14°C° 0 mm 4 m/s 760 mmHg 83%
    04:00 +14°C° 0 mm 4 m/s 760 mmHg 81%
    05:00 +15°C° 0 mm 5 m/s 760 mmHg 79%
    06:00 +15°C° 0 mm 5 m/s 760 mmHg 77%
    07:00 +17°C° 0 mm 5 m/s 760 mmHg 73%
    08:00 +19°C° 0 mm 5 m/s 760 mmHg 69%
    09:00 +21°C° 0 mm 5 m/s 760 mmHg 65%
    10:00 +22°C° 0 mm 6 m/s 760 mmHg 62%
    11:00 +23°C° 0 mm 6 m/s 760 mmHg 59%
    12:00 +24°C° 0 mm 6 m/s 760 mmHg 55%
    13:00 +24°C° 0 mm 6 m/s 760 mmHg 55%
    14:00 +24°C° 0 mm 6 m/s 759 mmHg 55%
    15:00 +24°C° 0 mm 6 m/s 759 mmHg 55%
    16:00 +23°C° 0 mm 5 m/s 759 mmHg 58%
    17:00 +22°C° 0 mm 5 m/s 759 mmHg 62%
    18:00 +21°C° 0 mm 5 m/s 759 mmHg 66%
    19:00 +20°C° 0 mm 5 m/s 760 mmHg 65%
    20:00 +17°C° 0 mm 5 m/s 760 mmHg 65%
    21:00 +16°C° 0 mm 5 m/s 761 mmHg 64%
    22:00 +15°C° 0 mm 4 m/s 761 mmHg 68%
    23:00 +15°C° 0 mm 4 m/s 761 mmHg 71%
    Voir plus